Regional Weather Roundup
Issued by NWS Columbia, SC

Home | Current Version | Previous Version | Text Only | Print | Product List | Glossary On
Versions: 1 2 3 4 5 6 7 8 9 10 11 12 13 14 15 16 17 18 19 20 21 22 23 24 25 26 27 28 29 30 31 32 33 34 35 36 37 38 39 40 41 42 43 44 45 46 47 48 49 50
000
ASUS42 KCAE 310410
RWRCAE
REGIONAL WEATHER ROUNDUP
NATIONAL WEATHER SERVICE COLUMBIA SC
1200 AM EDT SUN AUG 31 2014

NOTE: "FAIR" INDICATES FEW OR NO CLOUDS BELOW 12,000 FEET WITH NO
SIGNIFICANT WEATHER AND/OR OBSTRUCTIONS TO VISIBILITY.

NOT ALL STATIONS ARE QUALITY CONTROLLED BY THE NATIONAL
WEATHER SERVICE. USE DATA WITH CAUTION...ESPECIALLY
DEWPOINT OBSERVATIONS.

SCZ001>056-GAZ040-063>065-077-310500-
...UPSTATE SOUTH CAROLINA...

CITY           SKY/WX    TMP DP  RH WIND       PRES   REMARKS
ANDERSON       CLOUDY    76  73  91 CALM      30.13S
LIBERTY        MOCLDY    76  32  20 NE3       30.14S
SPARTANBURG    FAIR      81  70  69 SE3       30.15S
GREENVILLE     CLOUDY    78  70  76 SE6       30.16S
GREENWOOD      PTCLDY    81  69  67 S7        30.15F
GREER          CLOUDY    80  67  64 SE7       30.14S
ROCK HILL      PTCLDY    77  67  71 S7        30.17S
LAURENS        CLOUDY    81  59  47 S9        30.16S


...CENTRAL SOUTH CAROLINA...

CITY           SKY/WX    TMP DP  RH WIND       PRES   REMARKS
COLUMBIA APT   PTCLDY    81  70  69 SE7       30.14F
COLUMBIA OWENS PTCLDY    79  70  74 CALM      30.16S
DARLINGTON     PTCLDY    75  70  83 SE5       30.18S
FLORENCE       PTCLDY    76  72  87 SE3       30.16S
MCENTIRE ANGB  PTCLDY    75  71  86 SE2       30.16S
ORANGEBURG     PTCLDY    76  71  85 SE3       30.16S
SUMTER SHAW    PTCLDY    77  73  89 SE2       30.15F
NEWBERRY       CLOUDY    81  66  61 S8        30.17F
AIKEN          CLOUDY    79  73  83 SE8       30.18F
BARNWELL       MOCLDY    79  73  83 SE5       30.16S
MANNING        FAIR      75 N/A N/A CALM      30.16S
CAMDEN         FAIR      75  70  83 SE3       30.17F
LANCASTER      FAIR      75  70  83 SE5       30.16S
WINNSBORO      FAIR      77  70  78 SE5       30.16S


...EASTERN AND COASTAL SOUTH CAROLINA...

CITY           SKY/WX    TMP DP  RH WIND       PRES   REMARKS
MYRTLE BEACH   CLEAR     82  73  74 SE7       30.17S
N MYRTLE BCH   PTCLDY    81  74  79 SE6       30.17S
CONWAY         FAIR      72  72 100 CALM      30.17S
MARION         FAIR      73  72  94 CALM      30.17S
HARTSVILLE     FAIR      77  61  57 SE3       30.18S
FLORENCE       PTCLDY    76  72  87 SE3       30.16S
DARLINGTON     PTCLDY    75  70  83 SE5       30.18S
CHARLESTON APT PTCLDY    80  74  81 CALM      30.15S
MOUNT PLEASANT FAIR      77  75  94 E3        30.15F
WALTERBORO     CLEAR     75 N/A N/A E3        30.16S
BEAUFORT       CLEAR     80  76  87 S5        30.14F


...EASTERN GEORGIA...

CITY           SKY/WX    TMP DP  RH WIND       PRES   REMARKS
AUGUSTA BUSH F PTCLDY    77  71  82 SE6       30.13S
AUGUSTA DANIEL PTCLDY    81  71  71 SE7       30.15S
THOMSON        PTCLDY    83  76  79 S8        30.18S
WASHINGTON     FAIR      82  73  74 S7        30.14R
SYLVANIA       PTCLDY    76  74  95 CALM      30.16S
STATESBORO     CLEAR     76  76 100 CALM      30.15R
SAVANNAH       PTCLDY    81  75  82 SE3       30.15S


...SOUTHERN NORTH CAROLINA...

CITY           SKY/WX    TMP DP  RH WIND       PRES   REMARKS
CHARLOTTE      MOCLDY    78  64  61 S8        30.16F
MONROE         PTCLDY    77  67  71 VRB5      30.16S
WADESBORO      PTCLDY    77  70  79 S3        30.16S
ROCKINGHAM     PTCLDY    77  71  82 S6        30.17S
RUTHERFORDTON  CLOUDY    75  70  85 CALM      30.17S
ASHEVILLE      CLOUDY    73  70  90 CALM      30.22F

$$


USA.gov is the U.S. government's official web portal to all federal, state and local government web resources and services.